Doha, Qatar

5:49 PM +03 on August 18, 2017 (GMT +0300)
Doha International

Weather History for OTBD - March, 2013

Change the Weather History Date:

Sunday, March 24, 2013

  Actual Average Record
Temperature  
Mean Temperature 75 °F -  
Max Temperature 82 °F 87 °F 89 °F (1998)
Min Temperature 68 °F 68 °F 62 °F (1997)
Cooling Degree Days 10    
Growing Degree Days 25 (Base 50)    
Moisture  
Dew Point 62 °F    
Average Humidity 63    
Maximum Humidity 78    
Minimum Humidity 42    
Precipitation  
Precipitation 0.00 in 0.01 in - ()
Sea Level Pressure  
Sea Level Pressure 29.88 in    
Wind  
Wind Speed 6 mph ()    
Max Wind Speed 12 mph    
Max Gust Speed -    
Visibility 6.3 miles    
Events Rain    
Averages and records for this station are not official NWS values.
T = Trace of Precipitation, MM = Missing Value Source: Averaged Metar Reports

Daily Weather History Graph

Daily Weather History Graph

Search for Another Location

Airport or City:

Trip Planner

Search our weather history database for the weather conditions in past years. The results will help you decide how hot, cold, wet, or windy it might be!

Date:

Astronomy

Mar. 24, 2013 Rise Set
Actual Time 5:33 AM +03 5:46 PM +03
Civil Twilight 5:10 AM +03 6:09 PM +03
Nautical Twilight 4:44 AM +03 6:36 PM +03
Astronomical Twilight 4:17 AM +03 7:03 PM +03
Moon 3:05 PM +03 (3/24) 3:13 AM +03 (3/24)
Length of Visible Light 12h 58m
Length of Day
12h 13m
Waxing Gibbous, 90% of the Moon is Illuminated
Mar 24
Waxing Gibbous
Mar 27
Full
Apr 3
Last Quarter
Apr 10
New
Apr 18
First Quarter

Hourly Weather History & Observations

Time (+03) Temp. Heat Index Dew Point Humidity Pressure Visibility Wind Dir Wind Speed Gust Speed Precip Events Conditions
12:00 AM 71.6 °F - 60.8 °F 69% 29.89 in 6.2 mi North 10.4 mph - N/A Rain Light Rain
12:30 AM 71.6 °F - 59.0 °F 64% 29.89 in 6.2 mi North 6.9 mph - N/A   Mostly Cloudy
1:00 AM 71.6 °F - 62.6 °F 73% 29.86 in 6.2 mi North 11.5 mph - N/A   Mostly Cloudy
1:30 AM 71.6 °F - 64.4 °F 78% 29.86 in 6.2 mi Variable 2.3 mph - N/A   Mostly Cloudy
2:00 AM 71.6 °F - 60.8 °F 69% 29.86 in 6.2 mi WSW 3.5 mph - N/A Rain Light Rain
2:30 AM 69.8 °F - 60.8 °F 73% 29.86 in 6.2 mi WSW 5.8 mph - N/A Rain Light Rain
3:00 AM 70 °F - 59 °F 60% 29.83 in 6 mi SE 5.8 mph - - Rain Light Rain
3:00 AM 69.8 °F - 59.0 °F 68% 29.83 in 6.2 mi SE 5.8 mph - N/A Rain Light Rain
3:30 AM 69.8 °F - 60.8 °F 73% 29.80 in 6.2 mi SSE 3.5 mph - N/A   Mostly Cloudy
4:00 AM 69.8 °F - 57.2 °F 64% 29.80 in 6.2 mi South 5.8 mph - N/A   Mostly Cloudy
4:30 AM 69.8 °F - 59.0 °F 68% 29.83 in 6.2 mi WNW 3.5 mph - N/A   Mostly Cloudy
5:00 AM 69.8 °F - 57.2 °F 64% 29.83 in - North 4.6 mph - N/A   Clear
5:30 AM 69.8 °F - 57.2 °F 64% 29.83 in - NNE 3.5 mph - N/A   Clear
6:00 AM 69.8 °F - 59.0 °F 68% 29.86 in - NE 3.5 mph - N/A   Clear
6:30 AM 71.6 °F - 60.8 °F 69% 29.86 in - SW 3.5 mph - N/A   Clear
7:00 AM 71.6 °F - 60.8 °F 69% 29.86 in - SW 3.5 mph - N/A   Clear
7:30 AM 73.4 °F - 62.6 °F 69% 29.86 in - East 3.5 mph - N/A   Clear
8:00 AM 75.2 °F - 64.4 °F 69% 29.89 in - East 5.8 mph - N/A   Clear
8:30 AM 75.2 °F - 64.4 °F 69% 29.92 in - East 8.1 mph - N/A   Clear
9:00 AM 75 °F - 65 °F 64% 29.93 in 6 mi East 4.6 mph - -   Partly Cloudy
9:00 AM 75.2 °F - 64.4 °F 69% 29.92 in - East 4.6 mph - N/A   Clear
9:30 AM 78.8 °F - 64.4 °F 61% 29.92 in - ESE 3.5 mph - N/A   Clear
10:00 AM 78.8 °F - 64.4 °F 61% 29.92 in - SSE 3.5 mph - N/A   Clear
11:00 AM 80.6 °F 81.5 °F 60.8 °F 51% 29.92 in - North 9.2 mph - N/A   Clear
11:30 AM 80.6 °F 82.3 °F 64.4 °F 58% 29.92 in - NE 6.9 mph - N/A   Clear
12:00 PM 80.6 °F 82.3 °F 64.4 °F 58% 29.92 in - East 8.1 mph - N/A   Clear
12:30 PM 80.6 °F 82.3 °F 64.4 °F 58% 29.92 in - East 6.9 mph - N/A   Clear
1:00 PM 82.4 °F 83.4 °F 62.6 °F 51% 29.89 in - NE 6.9 mph - N/A   Clear
1:30 PM 82.4 °F 83.4 °F 62.6 °F 51% 29.89 in - East 10.4 mph - N/A   Clear
2:00 PM 80.6 °F 81.8 °F 62.6 °F 54% 29.89 in - East 10.4 mph - N/A   Clear
2:30 PM 80.6 °F 82.3 °F 64.4 °F 58% 29.89 in - ESE 9.2 mph - N/A   Clear
3:00 PM 81 °F - 63 °F 44% 29.88 in 7 mi East 9.2 mph - -   Scattered Clouds
3:00 PM 80.6 °F 81.8 °F 62.6 °F 54% 29.86 in - East 9.2 mph - N/A   Clear
4:00 PM 80.6 °F 81.5 °F 60.8 °F 51% 29.86 in - ENE 10.4 mph - N/A   Clear
4:30 PM 80.6 °F 80.8 °F 57.2 °F 45% 29.86 in - ENE 11.5 mph - N/A   Clear
5:30 PM 78.8 °F - 53.6 °F 42% 29.86 in - NE 11.5 mph - N/A   Clear
6:00 PM 77.0 °F - 68.0 °F 74% 29.89 in - NE 10.4 mph - N/A   Clear
6:30 PM 75.2 °F - 64.4 °F 69% 29.89 in - NE 9.2 mph - N/A   Clear
7:00 PM 75.2 °F - 62.6 °F 65% 29.89 in - NE 6.9 mph - N/A   Clear
7:30 PM 75.2 °F - 62.6 °F 65% 29.92 in - NNE 8.1 mph - N/A   Clear
8:00 PM 73.4 °F - 66.2 °F 78% 29.92 in - NNE 10.4 mph - N/A   Clear
8:30 PM 73.4 °F - 66.2 °F 78% 29.92 in - NNE 9.2 mph - N/A   Clear
9:00 PM 74 °F - 63 °F 61% 29.94 in 7 mi NNE 9.2 mph - -   Scattered Clouds
9:00 PM 73.4 °F - 62.6 °F 69% 29.92 in - NNE 9.2 mph - N/A   Clear
9:30 PM 75.2 °F - 60.8 °F 61% 29.92 in - NNE 9.2 mph - N/A   Clear
10:00 PM 73.4 °F - 60.8 °F 65% 29.92 in - North 10.4 mph - N/A   Clear
10:30 PM 73.4 °F - 62.6 °F 69% 29.92 in - NNE 6.9 mph - N/A   Clear
11:00 PM 73.4 °F - 59.0 °F 61% 29.92 in - NNE 9.2 mph - N/A   Clear
11:30 PM 73.4 °F - 60.8 °F 65% 29.92 in - NNE 6.9 mph - N/A   Clear